This is the latest recevied weather packets stored in our database for station/object BAGASKAR. If no packets are shown the sender has not sent any weather packets the latest 10 day(s).
| Time | Temp. | Humidity | Pressure | Rain* | Wind** | Luminosity | Snow |
|---|---|---|---|---|---|---|---|
| 1778165248 | 11.11° C | 48% | 1016.4 hPa | - | - | - | - |
| 1778164048 | 11.67° C | 51% | 1016.3 hPa | - | - | - | - |
| 1778162847 | 11.67° C | 52% | 1016.1 hPa | - | - | - | - |
| 1778161647 | 11.67° C | 49% | 1016.1 hPa | - | - | - | - |
| 1778160446 | 11.11° C | 46% | 1016.1 hPa | - | - | - | - |
| 1778159247 | 11.11° C | 48% | 1016.2 hPa | - | - | - | - |
| 1778158046 | 11.11° C | 49% | 1016.1 hPa | - | - | - | - |
| 1778156846 | 9.44° C | 54% | 1016.1 hPa | - | - | - | - |
| 1778155647 | 10° C | 65% | 1016.1 hPa | - | - | - | - |
| 1778154447 | 10° C | 59% | 1016.1 hPa | - | - | - | - |
| 1778153245 | 9.44° C | 69% | 1016.1 hPa | - | - | - | - |
| 1778152045 | 9.44° C | 65% | 1016 hPa | - | - | - | - |
| 1778150846 | 10° C | 68% | 1016 hPa | - | - | - | - |
| 1778149646 | 10° C | 64% | 1016 hPa | - | - | - | - |
| 1778148446 | 9.44° C | 69% | 1015.9 hPa | - | - | - | - |
| 1778147246 | 8.33° C | 73% | 1015.8 hPa | - | - | - | - |
| 1778146046 | 8.89° C | 65% | 1015.8 hPa | - | - | - | - |
| 1778144846 | 8.89° C | 63% | 1015.9 hPa | - | - | - | - |
| 1778143645 | 8.89° C | 60% | 1015.9 hPa | - | - | - | - |
| 1778142446 | 9.44° C | 62% | 1016 hPa | - | - | - | - |
| 1778141245 | 8.89° C | 58% | 1016 hPa | - | - | - | - |
| 1778138845 | 7.78° C | 57% | 1015.9 hPa | - | - | - | - |
| 1778137645 | 7.78° C | 54% | 1015.9 hPa | - | - | - | - |
| 1778136445 | 7.78° C | 54% | 1015.9 hPa | - | - | - | - |
| 1778135245 | 7.78° C | 51% | 1015.8 hPa | - | - | - | - |
* Rain since midnight (hover to see other rain measurements)
** Current wind speed in m/s (hover to see current wind gust speed)